Himawari-5

operational
NORAD ID: 23522 Int'l Des: 1995-011 Owner: NASDA Country: J
HEOCIRCULAR

关于 Himawari-5

正在加载描述...

实时位置

正在加载3D地球...

即将过境

高度历史

Altitude vs Time

uPlot chart will show altitude changes over time

两行轨道根数

1 23522U 95011B 26062.01757677 -.00000124 00000-0 00000+0 0 9993
2 23522 14.2560 5.2073 0004952 165.5959 4.1840 0.99408061112548
Epoch: Mar 3, 2026 • Age: 31 hours

当前状态

高度 36037.6 km
速度 3.07 km/s
星下点 -14.25°S, 3.89°E
发射日期 Mar 18, 1995
运行时间 30.9 years
类型 weather

技术详情

分类 Payload
质量 345.00 kg
干质量 200.00 kg
总质量 746.00 kg
长度 3.50 m
直径 2.20 m
跨度 3.50 m
形状 Cyl
制造商 NEC/HSES
平台类型 HS-378
阶段状态 In Orbit
所有者/国家 NASDA/J

大型星座

Loading constellations...